sat.trackr.live / text

‹ back to catalog

KUIPER-00547

NORAD 69615 · 2026-140Z

PAYLOAD ACTIVE UNKNOWN

§ Identity

Operator
Country
US
Launch date
2026-06-17
Launch site
FRGUI
Launch vehicle
Mass (kg)
RCS (m²)

External: N2YO · Heavens-Above · Gunter

§ Orbital elements

Epoch: 2026-09-20T04:00:03.000096Z

Period
93.83 min
Inclination
51.8817°
Eccentricity
0.0011019
Mean motion
15.34740138 rev/d
Perigee alt
454.2 km
Apogee alt
469.2 km
Semi-major
6,839.8 km
B*
-6.1298e-2
RAAN
299.0653°
Arg perigee
159.3295°
Mean anomaly
101.6732°
Rev number
553

§ Raw data

KUIPER-005471 69615U 26140Z   26263.16670139 -.01884640  00000+0 -61298-1 0  99912 69615  51.8817 299.0653 0011019 159.3295 101.6732 15.34740138  5538

JSON: /api/v1/satellites/69615 · /tle

For live sub-satellite position, see the globe view (requires WebGL).

§ Visibility from observer

Set your observer location to see the next 7 days of passes ≥ 10°. The values pass through the URL so the page stays shareable.

No JS? Fill the form by hand. The geolocation button needs JavaScript.